Location: Unnamed
(53.9021°N, 27.5568°E)
Time: 02:37:41
(UTC+03:00)

Starlink (trailer) - Visible Passes

Search period start: 22 September 2019 00:00
Search period end: 02 October 2019 00:00
Orbit: 549 x 551 km, 53.0° (Epoch: 21 September)

Date Brightness Start Highest point End Pass type
(mag) Time Alt. Az. Time Alt. Az. Time Alt. Az.
22 Sep 5.2 03:48:43 27° ESE 03:48:43 27° ESE 03:51:17 10° E visible
22 Sep 3.7 05:24:22 24° WSW 05:26:49 71° SSE 05:30:58 10° E visible
23 Sep 5.2 03:43:34 28° ESE 03:43:34 28° ESE 03:45:56 10° E visible
23 Sep 3.6 05:19:13 27° WSW 05:21:24 76° S 05:25:34 10° E visible
24 Sep 5.3 03:38:24 27° E 03:38:24 27° E 03:40:34 10° E visible
24 Sep 3.6 05:14:03 30° WSW 05:16:00 79° S 05:20:10 10° E visible
25 Sep 5.5 03:33:14 26° E 03:33:14 26° E 03:35:11 10° E visible
25 Sep 3.5 05:08:54 34° W 05:10:37 81° S 05:14:45 10° E visible
26 Sep 5.7 03:28:05 23° E 03:28:05 23° E 03:29:47 10° E visible
26 Sep 3.5 05:03:45 39° W 05:05:12 80° S 05:09:22 10° E visible
27 Sep 5.9 03:22:58 21° E 03:22:58 21° E 03:24:24 10° E visible
27 Sep 3.5 04:58:38 46° W 04:59:47 79° S 05:03:56 10° E visible
28 Sep 6.1 03:17:53 18° E 03:17:53 18° E 03:18:59 10° E visible
28 Sep 3.5 04:53:33 55° WSW 04:54:22 75° S 04:58:30 10° ESE visible
28 Sep 4.4 06:29:51 10° W 06:33:40 36° SSW 06:37:28 10° SE visible
29 Sep 6.3 03:12:52 14° E 03:12:52 14° E 03:13:33 10° E visible
29 Sep 3.5 04:48:32 64° SW 04:48:56 70° SSW 04:53:03 10° ESE visible
29 Sep 4.6 06:24:29 10° W 06:28:10 30° SSW 06:31:48 10° SSE visible
30 Sep 6.6 03:07:55 11° E 03:07:55 11° E 03:08:08 10° E visible
30 Sep 3.6 04:43:36 64° S 04:43:36 64° S 04:47:36 10° ESE visible
30 Sep 4.8 06:19:16 10° W 06:22:37 25° SW 06:26:02 10° SSE visible
01 Oct 4.1 04:38:45 49° SSE 04:38:45 49° SSE 04:42:06 10° ESE visible
01 Oct 5.1 06:14:26 12° W 06:17:03 21° SW 06:20:12 10° S visible
